QPF
0.00 0.00 0.00 0.00 0.00 0.00 0.00 0.00 0.00 0.00 0.00 0.00 0.00 0.00 0.00 0.00 0.00 0.00 0.00 0.00 0.00 0.01 0.01 0.01 0.01 0.02 0.02 0.03 0.04 0.04 0.05 0.05 0.05 0.06 0.06 0.06 0.06 0.06
0.00 0.00 0.00 0.00 0.00 0.00 0.00 0.00 0.00 0.00 0.00 0.00 0.00 0.00 0.00 0.00 0.00 0.00 0.00 0.00 0.00 0.00 0.01 0.01 0.02 0.02 0.03 0.03 0.04 0.04 0.05 0.05 0.06 0.07 0.08 0.09 0.10 0.10
0.00 0.00 0.00 0.00 0.00 0.00 0.00 0.00 0.00 0.00 0.00 0.00 0.00 0.00 0.00 0.00 0.00 0.00 0.00 0.00 0.00 0.00 0.01 0.01 0.02 0.02 0.02 0.03 0.04 0.04 0.05 0.05 0.06 0.07 0.08 0.10 0.11 0.11
0.00 0.00 0.00 0.00 0.00 0.00 0.00 0.00 0.00 0.00 0.00 0.00 0.00 0.00 0.00 0.00 0.00 0.00 0.00 0.00 0.00 0.00 0.00 0.01 0.01 0.01 0.02 0.02 0.03 0.04 0.04 0.05 0.06 0.06 0.07 0.07 0.08 0.09
0.00 0.00 0.00 0.00 0.00 0.00 0.00 0.00 0.00 0.00 0.01 0.01 0.00 0.00 0.00 0.00 0.00 0.00 0.00 0.00 0.00 0.00 0.00 0.00 0.00 0.01 0.01 0.02 0.02 0.03 0.03 0.03 0.04 0.04 0.04 0.05 0.05 0.06
0.00 0.00 0.00 0.00 0.00 0.00 0.00 0.00 0.00 0.01 0.01 0.01 0.01 0.01 0.01 0.00 0.00 0.00 0.00 0.00 0.00 0.00 0.00 0.00 0.00 0.00 0.00 0.01 0.01 0.01 0.01 0.01 0.02 0.02 0.03 0.03 0.03 0.03
0.00 0.00 0.00 0.00 0.00 0.00 0.00 0.01 0.01 0.01 0.02 0.03 0.03 0.02 0.01 0.00 0.00 0.00 0.00 0.00 0.00 0.00 0.00 0.00 0.00 0.00 0.00 0.00 0.00 0.00 0.00 0.01 0.01 0.02 0.03 0.04 0.04 0.04
0.00 0.00 0.00 0.00 0.00 0.00 0.00 0.00 0.01 0.03 0.04 0.05 0.03 0.01 0.00 0.00 0.00 0.01 0.01 0.02 0.01 0.00 0.00 0.00 0.00 0.00 0.00 0.00 0.00 0.00 0.00 0.01 0.02 0.03 0.04 0.05 0.05 0.05
0.00 0.00 0.00 0.00 0.00 0.00 0.00 0.01 0.02 0.02 0.03 0.02 0.01 0.00 0.00 0.01 0.02 0.03 0.02 0.02 0.01 0.00 0.00 0.00 0.00 0.00 0.00 0.00 0.00 0.00 0.00 0.01 0.02 0.02 0.03 0.04 0.04 0.05
0.00 0.00 0.00 0.00 0.00 0.00 0.01 0.02 0.02 0.01 0.00 0.00 0.00 0.01 0.01 0.01 0.02 0.03 0.03 0.02 0.01 0.00 0.00 0.00 0.00 0.00 0.00 0.00 0.00 0.00 0.00 0.01 0.01 0.02 0.03 0.03 0.04 0.04
0.00 0.00 0.00 0.00 0.00 0.01 0.03 0.03 0.01 0.00 0.00 0.00 0.01 0.01 0.00 0.00 0.01 0.02 0.02 0.03 0.01 0.00 0.00 0.00 0.00 0.00 0.00 0.00 0.00 0.00 0.00 0.00 0.01 0.02 0.03 0.03 0.04 0.04
0.00 0.00 0.00 0.00 0.01 0.02 0.02 0.01 0.00 0.00 0.01 0.01 0.00 0.00 0.00 0.00 0.00 0.01 0.03 0.06 0.04 0.02 0.00 0.01 0.01 0.02 0.03 0.00 0.00 0.00 0.00 0.00 0.01 0.01 0.02 0.04 0.05 0.07
0.00 0.00 0.00 0.00 0.01 0.02 0.01 0.00 0.00 0.01 0.01 0.00 0.00 0.00 0.00 0.00 0.00 0.00 0.01 0.07 0.09 0.05 0.01 0.06 0.06 0.02 0.04 0.02 0.00 0.00 0.00 0.01 0.01 0.01 0.01 0.02 0.05 0.11
0.00 0.00 0.00 0.01 0.01 0.00 0.00 0.00 0.01 0.01 0.00 0.00 0.00 0.00 0.00 0.00 0.00 0.00 0.00 0.01 0.04 0.05 0.03 0.07 0.10 0.05 0.06 0.04 0.01 0.00 0.00 0.01 0.02 0.03 0.03 0.04 0.05 0.07
0.00 0.00 0.01 0.00 0.00 0.00 0.00 0.00 0.00 0.00 0.00 0.00 0.00 0.00 0.00 0.00 0.00 0.00 0.00 0.00 0.00 0.00 0.01 0.02 0.07 0.07 0.08 0.08 0.06 0.02 0.02 0.01 0.01 0.05 0.08 0.09 0.08 0.07
0.00 0.00 0.00 0.00 0.00 0.00 0.00 0.00 0.00 0.00 0.00 0.01 0.01 0.00 0.00 0.00 0.00 0.00 0.01 0.01 0.01 0.00 0.00 0.01 0.04 0.09 0.09 0.05 0.07 0.06 0.05 0.07 0.06 0.08 0.10 0.09 0.08 0.08
0.01 0.00 0.00 0.00 0.00 0.00 0.00 0.00 0.00 0.00 0.00 0.00 0.01 0.01 0.00 0.00 0.00 0.00 0.01 0.01 0.01 0.01 0.00 0.00 0.01 0.03 0.05 0.05 0.04 0.03 0.04 0.07 0.08 0.10 0.12 0.11 0.09 0.09
0.00 0.00 0.00 0.00 0.00 0.00 0.00 0.00 0.00 0.00 0.00 0.01 0.01 0.01 0.01 0.01 0.01 0.00 0.01 0.01 0.01 0.01 0.01 0.01 0.01 0.01 0.00 0.00 0.01 0.04 0.07 0.08 0.08 0.09 0.12 0.11 0.09 0.08
0.00 0.00 0.00 0.00 0.00 0.00 0.00 0.00 0.00 0.00 0.01 0.01 0.02 0.02 0.02 0.02 0.01 0.01 0.01 0.01 0.01 0.01 0.01 0.01 0.03 0.04 0.03 0.01 0.01 0.03 0.12 0.12 0.08 0.08 0.11 0.13 0.13 0.10
0.00 0.00 0.00 0.00 0.00 0.00 0.01 0.01 0.01 0.01 0.01 0.01 0.01 0.02 0.03 0.03 0.02 0.01 0.01 0.02 0.02 0.01 0.01 0.01 0.03 0.07 0.11 0.11 0.09 0.04 0.06 0.13 0.13 0.11 0.09 0.08 0.08 0.08
0.00 0.00 0.00 0.00 0.01 0.01 0.01 0.01 0.01 0.01 0.02 0.02 0.02 0.02 0.03 0.03 0.02 0.01 0.01 0.01 0.02 0.02 0.02 0.01 0.02 0.05 0.07 0.05 0.04 0.03 0.03 0.06 0.12 0.13 0.09 0.06 0.05 0.07
0.00 0.00 0.00 0.00 0.01 0.01 0.01 0.01 0.01 0.01 0.02 0.02 0.02 0.03 0.03 0.04 0.03 0.02 0.02 0.02 0.02 0.02 0.02 0.01 0.01 0.01 0.01 0.02 0.03 0.03 0.03 0.02 0.02 0.04 0.08 0.14 0.17 0.22
0.00 0.00 0.00 0.01 0.01 0.01 0.01 0.01 0.01 0.01 0.02 0.03 0.03 0.03 0.03 0.03 0.02 0.02 0.02 0.02 0.02 0.01 0.01 0.01 0.00 0.01 0.01 0.02 0.03 0.03 0.03 0.02 0.02 0.03 0.06 0.12 0.19 0.24
MSLP
1020.17 1020.13 1020.00 1019.75 1019.39 1018.92 1018.35 1017.72 1017.07 1016.42 1015.81 1015.26 1014.78 1014.37 1014.00 1013.66 1013.33 1012.98 1012.58 1012.14 1011.64 1011.09 1010.50 1009.88 1009.24 1008.61 1007.99 1007.40 1006.83 1006.30 1005.81 1005.34 1004.91 1004.52 1004.15 1003.82 1003.52 1003.26
1020.01 1019.94 1019.80 1019.56 1019.22 1018.76 1018.21 1017.60 1016.93 1016.26 1015.61 1015.00 1014.44 1013.93 1013.47 1013.05 1012.63 1012.20 1011.74 1011.25 1010.72 1010.14 1009.53 1008.90 1008.26 1007.63 1007.02 1006.44 1005.89 1005.38 1004.90 1004.45 1004.03 1003.64 1003.27 1002.93 1002.60 1002.31
1019.70 1019.60 1019.44 1019.22 1018.91 1018.50 1017.99 1017.41 1016.77 1016.10 1015.42 1014.76 1014.13 1013.54 1012.98 1012.46 1011.94 1011.43 1010.89 1010.33 1009.74 1009.12 1008.47 1007.82 1007.16 1006.52 1005.90 1005.31 1004.77 1004.27 1003.81 1003.39 1002.99 1002.62 1002.26 1001.92 1001.59 1001.27
1019.29 1019.16 1019.00 1018.80 1018.53 1018.17 1017.72 1017.19 1016.58 1015.92 1015.23 1014.54 1013.85 1013.18 1012.54 1011.92 1011.31 1010.70 1010.09 1009.45 1008.79 1008.11 1007.41 1006.70 1006.00 1005.32 1004.67 1004.07 1003.52 1003.02 1002.57 1002.17 1001.80 1001.45 1001.12 1000.80 1000.47 1000.15
1018.84 1018.69 1018.53 1018.35 1018.12 1017.81 1017.42 1016.94 1016.37 1015.73 1015.03 1014.31 1013.58 1012.85 1012.14 1011.43 1010.75 1010.06 1009.37 1008.66 1007.93 1007.18 1006.41 1005.64 1004.87 1004.12 1003.42 1002.77 1002.18 1001.67 1001.21 1000.82 1000.47 1000.16 999.86 999.56 999.26 998.96
1018.41 1018.24 1018.08 1017.92 1017.72 1017.45 1017.09 1016.64 1016.10 1015.48 1014.78 1014.04 1013.28 1012.51 1011.74 1010.99 1010.24 1009.50 1008.75 1007.98 1007.19 1006.38 1005.54 1004.69 1003.84 1003.01 1002.22 1001.49 1000.84 1000.28 999.80 999.39 999.04 998.74 998.47 998.21 997.95 997.67
1018.03 1017.85 1017.68 1017.52 1017.33 1017.07 1016.73 1016.29 1015.75 1015.13 1014.43 1013.69 1012.91 1012.12 1011.33 1010.55 1009.78 1009.02 1008.24 1007.44 1006.61 1005.74 1004.83 1003.90 1002.96 1002.03 1001.14 1000.31 999.57 998.92 998.37 997.92 997.54 997.24 996.97 996.73 996.50 996.26
1017.72 1017.52 1017.33 1017.15 1016.93 1016.65 1016.29 1015.84 1015.30 1014.67 1013.96 1013.21 1012.44 1011.65 1010.87 1010.11 1009.35 1008.59 1007.82 1007.01 1006.16 1005.25 1004.29 1003.28 1002.25 1001.22 1000.21 999.27 998.40 997.64 996.99 996.45 996.01 995.66 995.36 995.12 994.89 994.68
1017.46 1017.23 1017.00 1016.77 1016.51 1016.18 1015.78 1015.29 1014.71 1014.07 1013.36 1012.62 1011.86 1011.10 1010.36 1009.64 1008.92 1008.20 1007.45 1006.66 1005.81 1004.89 1003.89 1002.83 1001.72 1000.59 999.46 998.39 997.39 996.49 995.70 995.04 994.49 994.03 993.67 993.37 993.12 992.91
1017.22 1016.94 1016.67 1016.37 1016.03 1015.63 1015.16 1014.62 1014.02 1013.35 1012.65 1011.93 1011.20 1010.50 1009.81 1009.14 1008.48 1007.81 1007.11 1006.36 1005.53 1004.60 1003.59 1002.48 1001.31 1000.09 998.87 997.67 996.53 995.48 994.53 993.71 993.00 992.41 991.92 991.52 991.20 990.95
1016.97 1016.64 1016.29 1015.91 1015.49 1015.01 1014.48 1013.89 1013.25 1012.58 1011.89 1011.19 1010.52 1009.87 1009.25 1008.64 1008.04 1007.43 1006.77 1006.05 1005.24 1004.33 1003.31 1002.18 1000.97 999.69 998.38 997.07 995.80 994.60 993.49 992.49 991.60 990.83 990.18 989.64 989.20 988.87
1016.67 1016.28 1015.86 1015.40 1014.90 1014.35 1013.76 1013.13 1012.48 1011.81 1011.15 1010.50 1009.87 1009.28 1008.71 1008.16 1007.61 1007.03 1006.41 1005.71 1004.91 1004.01 1002.98 1001.85 1000.61 999.30 997.93 996.55 995.17 993.84 992.57 991.40 990.32 989.36 988.52 987.81 987.23 986.79
1016.33 1015.89 1015.40 1014.87 1014.31 1013.71 1013.08 1012.43 1011.78 1011.13 1010.50 1009.90 1009.32 1008.78 1008.24 1007.72 1007.18 1006.62 1005.99 1005.29 1004.49 1003.59 1002.56 1001.43 1000.19 998.87 997.47 996.04 994.60 993.17 991.78 990.45 989.20 988.06 987.03 986.14 985.40 984.83
1015.96 1015.47 1014.94 1014.36 1013.76 1013.13 1012.49 1011.85 1011.22 1010.61 1010.02 1009.46 1008.91 1008.39 1007.87 1007.34 1006.78 1006.18 1005.52 1004.79 1003.97 1003.04 1002.01 1000.88 999.66 998.34 996.96 995.52 994.05 992.56 991.09 989.64 988.26 986.96 985.78 984.73 983.84 983.14
1015.59 1015.07 1014.51 1013.91 1013.29 1012.67 1012.05 1011.43 1010.84 1010.27 1009.72 1009.18 1008.65 1008.12 1007.58 1007.00 1006.39 1005.73 1005.00 1004.21 1003.33 1002.38 1001.34 1000.21 999.01 997.72 996.37 994.96 993.49 992.00 990.48 988.98 987.51 986.11 984.80 983.63 982.63 981.83
1015.26 1014.72 1014.15 1013.56 1012.96 1012.36 1011.77 1011.20 1010.64 1010.11 1009.58 1009.05 1008.52 1007.95 1007.35 1006.71 1006.01 1005.25 1004.43 1003.56 1002.62 1001.62 1000.56 999.44 998.26 997.02 995.72 994.35 992.93 991.47 989.96 988.45 986.95 985.50 984.13 982.89 981.81 980.94
1014.98 1014.45 1013.89 1013.32 1012.75 1012.19 1011.64 1011.11 1010.59 1010.08 1009.56 1009.02 1008.45 1007.83 1007.15 1006.41 1005.61 1004.75 1003.83 1002.87 1001.86 1000.82 999.74 998.62 997.47 996.28 995.03 993.74 992.38 990.97 989.51 988.03 986.55 985.10 983.73 982.47 981.36 980.46
1014.77 1014.26 1013.73 1013.19 1012.66 1012.14 1011.62 1011.12 1010.62 1010.11 1009.58 1009.00 1008.37 1007.68 1006.92 1006.08 1005.18 1004.22 1003.22 1002.18 1001.11 1000.03 998.94 997.83 996.71 995.56 994.38 993.15 991.86 990.53 989.14 987.73 986.30 984.90 983.55 982.32 981.23 980.32
1014.63 1014.13 1013.63 1013.12 1012.62 1012.13 1011.64 1011.14 1010.64 1010.11 1009.54 1008.91 1008.22 1007.45 1006.61 1005.69 1004.71 1003.68 1002.61 1001.51 1000.41 999.32 998.22 997.13 996.04 994.93 993.80 992.63 991.42 990.16 988.85 987.51 986.16 984.83 983.55 982.37 981.31 980.43
1014.52 1014.04 1013.55 1013.07 1012.58 1012.10 1011.60 1011.10 1010.56 1009.99 1009.37 1008.68 1007.92 1007.09 1006.18 1005.21 1004.18 1003.11 1002.01 1000.91 999.80 998.71 997.63 996.57 995.50 994.43 993.35 992.23 991.08 989.88 988.65 987.39 986.13 984.88 983.67 982.55 981.54 980.67
1014.41 1013.93 1013.45 1012.97 1012.48 1011.98 1011.46 1010.91 1010.33 1009.70 1009.02 1008.27 1007.46 1006.57 1005.63 1004.63 1003.59 1002.52 1001.44 1000.36 999.29 998.23 997.19 996.16 995.13 994.10 993.05 991.97 990.87 989.73 988.57 987.38 986.19 985.02 983.89 982.83 981.86 981.01
1014.26 1013.77 1013.28 1012.77 1012.26 1011.72 1011.16 1010.56 1009.92 1009.22 1008.48 1007.68 1006.82 1005.91 1004.95 1003.97 1002.95 1001.93 1000.91 999.89 998.88 997.88 996.89 995.91 994.92 993.92 992.91 991.87 990.80 989.71 988.61 987.49 986.37 985.27 984.20 983.19 982.26 981.42
1014.05 1013.54 1013.01 1012.47 1011.90 1011.31 1010.69 1010.03 1009.32 1008.57 1007.76 1006.92 1006.04 1005.13 1004.20 1003.25 1002.30 1001.35 1000.41 999.48 998.55 997.63 996.71 995.78 994.84 993.89 992.91 991.91 990.88 989.84 988.79 987.73 986.68 985.65 984.64 983.68 982.76 981.92
Thickness
5497 5492 5486 5481 5475 5470 5464 5459 5456 5463 5469 5461 5451 5441 5430 5423 5416 5409 5404 5399 5391 5384 5377 5371 5365 5360 5357 5354 5352 5350 5348 5348 5349 5351 5353 5358 5364 5371
5484 5479 5474 5468 5462 5456 5450 5444 5439 5437 5444 5444 5431 5421 5410 5401 5392 5384 5377 5369 5361 5352 5345 5340 5337 5335 5333 5332 5330 5329 5328 5328 5328 5329 5331 5334 5338 5343
5474 5467 5461 5454 5447 5441 5435 5429 5424 5419 5422 5427 5413 5403 5391 5381 5372 5361 5351 5342 5336 5329 5324 5322 5320 5320 5320 5320 5320 5320 5319 5318 5318 5318 5319 5320 5322 5326
5462 5455 5448 5440 5433 5427 5420 5414 5408 5402 5399 5402 5398 5385 5374 5360 5350 5340 5329 5320 5317 5315 5313 5312 5312 5312 5313 5313 5314 5314 5314 5313 5312 5311 5311 5311 5312 5314
5449 5442 5434 5427 5420 5413 5406 5399 5393 5386 5379 5376 5376 5366 5354 5340 5331 5323 5314 5309 5306 5305 5306 5307 5307 5308 5308 5309 5310 5310 5309 5309 5307 5306 5305 5304 5304 5305
5437 5428 5420 5413 5405 5398 5391 5384 5376 5368 5359 5353 5350 5343 5333 5321 5311 5309 5307 5301 5300 5299 5302 5303 5304 5305 5305 5306 5306 5306 5305 5304 5303 5301 5300 5299 5299 5299
5425 5417 5408 5399 5390 5381 5374 5365 5355 5346 5336 5328 5323 5318 5312 5304 5299 5296 5296 5296 5296 5294 5300 5302 5301 5303 5304 5304 5304 5304 5303 5302 5301 5300 5299 5298 5297 5297
5413 5405 5397 5388 5379 5369 5359 5346 5333 5322 5313 5305 5300 5295 5292 5289 5288 5286 5285 5288 5294 5292 5294 5299 5296 5301 5302 5304 5305 5304 5303 5302 5301 5301 5300 5299 5298 5297
5400 5393 5385 5376 5365 5355 5344 5332 5318 5304 5293 5286 5284 5281 5281 5279 5278 5279 5279 5280 5283 5285 5286 5296 5297 5300 5301 5304 5305 5305 5305 5305 5304 5304 5303 5302 5301 5301
5388 5380 5371 5361 5349 5337 5328 5318 5305 5294 5284 5277 5274 5273 5272 5271 5270 5271 5272 5276 5281 5281 5280 5288 5295 5298 5301 5303 5305 5306 5307 5308 5308 5308 5307 5306 5305 5304
5377 5366 5355 5344 5332 5320 5310 5302 5293 5285 5277 5272 5269 5268 5268 5267 5266 5265 5266 5268 5276 5281 5278 5281 5288 5292 5296 5301 5307 5309 5310 5311 5312 5312 5312 5311 5309 5308
5365 5352 5339 5326 5313 5300 5291 5286 5282 5278 5273 5270 5269 5269 5267 5266 5263 5261 5260 5259 5264 5272 5277 5276 5277 5278 5293 5303 5305 5308 5311 5314 5316 5317 5316 5315 5313 5310
5347 5336 5324 5309 5297 5287 5279 5275 5272 5269 5268 5268 5268 5267 5265 5264 5262 5258 5255 5251 5254 5261 5267 5265 5269 5271 5274 5293 5305 5308 5311 5316 5319 5320 5320 5319 5317 5313
5330 5319 5307 5295 5285 5278 5273 5269 5266 5264 5264 5263 5262 5261 5260 5259 5257 5254 5251 5249 5249 5254 5260 5259 5262 5267 5274 5285 5300 5312 5315 5316 5320 5323 5323 5324 5322 5321
5313 5301 5291 5283 5277 5272 5268 5265 5263 5261 5259 5257 5256 5255 5254 5252 5251 5252 5252 5251 5253 5256 5260 5262 5265 5270 5275 5284 5295 5306 5314 5321 5323 5325 5326 5326 5328 5326
5299 5290 5282 5276 5270 5266 5265 5263 5260 5257 5254 5252 5251 5250 5248 5248 5248 5249 5250 5251 5254 5261 5265 5267 5270 5274 5281 5289 5295 5305 5311 5316 5323 5326 5329 5332 5332 5329
5285 5279 5275 5270 5266 5263 5261 5259 5256 5254 5250 5246 5245 5244 5244 5244 5245 5245 5245 5247 5250 5259 5268 5273 5276 5281 5287 5293 5302 5310 5315 5320 5324 5328 5332 5336 5337 5334
5274 5270 5267 5263 5260 5257 5255 5254 5252 5249 5246 5243 5241 5240 5240 5240 5242 5243 5244 5246 5250 5257 5264 5272 5280 5289 5298 5308 5311 5313 5316 5320 5326 5330 5333 5337 5340 5337
5266 5262 5259 5256 5254 5252 5250 5249 5248 5246 5243 5240 5239 5239 5238 5238 5239 5241 5244 5247 5251 5257 5264 5272 5279 5287 5296 5306 5317 5317 5315 5320 5325 5332 5336 5337 5340 5339
5260 5257 5254 5253 5251 5249 5248 5247 5246 5244 5242 5239 5238 5237 5236 5237 5238 5241 5244 5247 5251 5258 5266 5274 5281 5286 5290 5297 5307 5316 5318 5319 5324 5330 5336 5340 5343 5343
5256 5254 5252 5251 5249 5248 5247 5245 5243 5242 5240 5238 5237 5237 5237 5237 5238 5241 5244 5249 5253 5260 5267 5275 5282 5287 5292 5299 5308 5319 5323 5323 5322 5326 5332 5340 5344 5346
5253 5252 5252 5251 5249 5248 5246 5244 5243 5242 5240 5239 5238 5238 5238 5238 5240 5243 5246 5251 5256 5262 5268 5276 5285 5291 5297 5302 5309 5316 5322 5326 5329 5330 5331 5332 5335 5339
5251 5252 5252 5252 5251 5249 5247 5245 5244 5243 5242 5240 5240 5240 5239 5240 5242 5245 5249 5254 5259 5265 5271 5278 5287 5293 5300 5305 5310 5316 5321 5325 5329 5332 5334 5334 5335 5336